Location: Crescent
(42.8242°N, 73.7329°W)
Time: 14:58:11
(UTC+00:00)

Courier 1B - Pass Details

Date: 19 February 2026
Orbit: 962 x 1208 km, 28.3° (Epoch: 7 March)

Event Time Altitude Azimuth Distance (km) Brightness Sun altitude
Rises 23:20:13 0° 217° (SW) 3,819 11.3 -9.5°
Reaches altitude 10° 23:23:55 10° 199° (SSW) 2,916 10.3 -10.2°
Maximum altitude 23:28:19 17° 160° (SSE) 2,473 9.5 -11.0°
Drops below altitude 10° 23:32:52 10° 122° (ESE) 3,032 9.6 -11.9°
Enters shadow 23:33:29 - 119° (ESE) 3,168 9.7 -12.0°
